Wind_Speed
27 28 28 29 30 31 29 27 26 26 25 26 26 26 26 25 25 25 23 23 22 22 22 22 22 22 21 20 19 18 18 17 16 15 14 14 14 13 12 11 11 10 10 9 9 8 8 8 8
29 29 30 31 32 32 30 28 29 28 27 28 28 28 27 27 26 25 24 24 23 23 23 24 24 24 23 22 21 20 19 18 17 17 17 16 15 15 14 13 12 12 11 11 10 10 10 10 10
30 30 32 32 33 32 30 30 31 30 30 30 30 29 29 29 27 26 26 26 25 25 25 26 26 25 25 24 24 23 22 20 20 19 18 18 17 16 16 15 14 14 13 13 12 12 11 11 11
29 30 33 34 33 31 32 32 33 33 33 32 31 31 31 31 29 28 28 28 27 27 27 27 27 27 27 26 26 25 24 23 22 21 20 19 18 18 18 17 17 16 15 14 14 13 13 13 13
28 30 32 34 33 32 34 32 34 35 35 34 33 33 33 32 30 30 29 29 29 29 29 30 29 29 29 29 28 27 26 25 24 23 22 21 20 20 19 19 19 18 16 16 15 15 15 14 14
28 29 31 32 32 34 35 34 35 36 36 35 35 35 34 34 32 31 31 31 31 30 30 31 31 31 31 31 30 29 28 27 26 25 24 23 22 21 21 20 20 19 18 17 17 16 16 16 16
28 29 31 31 32 34 36 35 37 38 37 37 36 36 37 35 34 33 33 32 31 31 31 32 32 33 32 32 31 31 30 29 28 27 27 25 24 23 23 22 21 20 20 19 19 18 17 17 17
28 29 30 30 32 33 34 35 37 38 38 38 37 37 37 36 35 35 34 33 32 32 32 32 33 33 33 33 33 32 32 31 30 29 29 28 27 26 24 23 23 22 21 21 20 20 19 19 19
28 29 30 30 32 32 33 35 36 38 38 38 38 37 38 36 36 36 35 34 33 33 33 33 33 33 34 34 33 33 33 32 32 31 30 29 28 28 26 25 25 24 23 23 22 21 21 20 20
27 28 29 30 32 33 34 35 37 37 38 38 38 37 36 36 36 35 35 34 34 34 34 34 34 34 34 34 34 34 34 34 33 33 31 30 30 29 28 27 26 25 25 24 23 23 23 22 22
26 27 28 29 31 32 33 34 35 36 37 37 36 34 34 34 35 35 34 34 34 35 35 35 35 36 36 36 36 35 35 34 34 34 33 32 31 31 30 29 28 27 26 26 25 25 24 24 24
25 26 27 27 29 31 31 32 34 35 35 34 35 34 32 32 32 33 33 34 34 35 36 36 36 37 38 38 37 37 36 36 35 35 34 34 33 32 31 30 29 28 27 27 27 26 26 25 25
24 25 26 26 28 29 30 31 31 32 32 34 34 35 33 31 30 31 32 32 33 35 35 36 36 37 38 39 39 38 38 38 37 36 35 35 34 34 33 32 30 30 29 29 28 28 27 27 27
23 24 24 25 25 27 28 28 29 29 30 33 33 34 33 31 31 30 31 31 32 34 35 36 36 37 38 39 39 39 39 39 38 37 36 35 34 34 33 33 33 32 31 30 30 29 29 29 28
22 22 22 24 24 25 26 26 26 26 28 30 31 32 32 31 30 30 31 31 32 33 35 35 35 37 38 40 40 39 40 40 39 38 37 36 35 35 35 33 33 32 32 31 30 30 30 30 30
20 21 21 21 22 23 25 24 24 25 26 27 29 30 30 30 30 30 31 31 32 33 34 36 35 36 37 39 40 39 39 40 40 39 38 37 36 35 35 35 34 33 32 32 31 31 31 31 31
19 19 19 19 21 22 24 23 23 24 26 27 27 29 29 30 30 30 30 31 32 34 35 36 35 36 37 38 39 40 39 39 39 39 38 37 37 35 35 34 34 34 34 33 32 32 31 31 31
18 17 17 18 18 20 22 24 23 24 25 25 26 28 28 29 30 30 30 31 33 35 35 35 36 37 37 37 39 39 40 41 40 39 39 38 37 36 36 35 36 35 35 34 34 34 33 32 32
15 16 16 15 17 18 19 22 23 22 24 25 25 26 27 28 30 30 31 31 33 34 35 36 37 37 37 37 38 39 40 40 41 41 40 40 39 38 37 36 37 36 36 35 34 33 34 33 33
14 14 14 14 16 18 18 19 21 22 22 23 24 26 27 27 29 30 31 32 33 33 35 37 37 37 37 37 37 38 38 40 40 40 40 41 40 39 38 36 36 37 37 37 36 35 34 35 35
14 14 14 15 16 16 19 20 21 21 22 23 24 25 27 27 28 30 32 31 31 32 35 37 37 38 38 38 37 38 39 39 39 39 40 41 41 40 39 38 37 37 38 37 37 37 36 35 37
14 14 14 15 16 16 18 20 20 21 21 22 23 25 26 27 28 29 31 30 30 30 32 35 37 38 39 37 36 37 39 39 39 40 40 40 40 39 39 38 38 38 39 39 39 39 38 37 37
14 14 15 15 16 17 17 19 19 21 21 21 22 23 26 27 28 29 30 31 30 31 32 34 36 38 38 37 36 36 38 39 39 39 40 40 42 41 40 40 39 39 40 40 40 41 40 40 39
13 13 14 15 16 17 17 20 21 21 21 21 22 23 25 27 27 28 28 29 30 30 32 32 34 37 37 37 36 35 36 38 39 40 39 39 40 41 41 40 40 40 40 40 40 41 41 41 40
13 14 14 15 16 17 17 20 21 21 20 21 22 23 24 26 27 28 28 28 28 29 30 32 32 34 36 37 36 36 36 37 39 39 39 38 38 39 40 40 40 40 39 40 40 42 42 40 39
14 15 15 17 18 18 18 20 21 21 21 21 22 23 23 24 26 26 27 28 28 29 30 31 32 33 35 36 36 36 36 36 38 39 39 39 38 38 40 40 41 41 41 41 40 40 40 40 40
16 16 17 18 18 19 19 20 21 21 21 21 23 24 24 23 24 25 26 27 28 29 31 32 32 33 34 35 36 36 36 37 37 38 37 38 38 38 38 40 41 42 41 41 39 39 40 41 40
17 17 17 17 18 18 19 19 20 21 22 22 22 23 23 23 24 25 26 27 28 30 31 32 32 33 33 35 35 36 36 35 35 36 37 38 38 38 38 38 40 40 40 40 39 39 39 39 39
17 17 17 17 18 19 20 20 19 20 21 22 23 23 23 23 24 26 27 28 29 30 30 31 31 32 33 34 34 35 36 37 37 37 36 38 38 38 37 36 37 37 38 38 38 39 39 39 38
18 17 17 18 19 20 21 21 18 19 20 21 22 23 23 24 25 26 26 27 28 29 29 30 31 31 32 34 34 34 34 35 37 38 38 38 39 39 38 38 37 37 38 38 38 38 38 38 38
Wind_Direction
250 248 248 248 249 248 249 249 249 247 245 245 243 244 244 247 248 249 250 249 247 244 241 239 238 238 238 237 234 236 237 237 238 237 236 234 232 231 232 236 240 245 249 254 260 267 272 278 284
250 249 249 249 250 250 251 251 249 248 247 245 244 245 245 247 248 249 250 248 247 245 242 241 239 239 239 237 235 236 238 238 239 239 237 236 235 235 236 237 241 246 250 255 262 268 272 278 282
250 249 250 250 251 252 252 251 250 248 247 246 245 245 246 247 248 249 249 248 247 245 242 242 240 239 239 238 236 236 239 239 239 238 237 238 239 240 240 239 243 247 251 256 262 267 272 276 280
250 251 251 251 252 253 252 250 249 248 247 247 247 246 246 247 248 249 248 248 246 244 242 241 240 239 239 239 239 237 239 240 239 238 237 238 240 242 242 242 245 248 251 256 261 265 270 274 278
252 253 253 253 253 252 251 250 249 247 247 247 246 246 247 248 248 248 248 249 249 246 244 241 240 239 239 239 239 239 238 240 240 239 240 240 242 243 244 246 246 248 251 257 260 264 268 273 277
254 255 256 256 255 252 250 249 249 247 246 246 246 246 247 249 249 249 249 249 249 246 243 241 240 240 239 239 238 239 238 240 240 240 241 242 243 245 245 246 248 250 252 256 260 263 266 271 274
256 258 259 259 256 253 250 247 248 247 245 245 246 247 247 248 248 249 250 250 249 246 242 240 240 239 239 239 238 238 239 240 240 240 242 243 242 243 245 246 249 251 253 255 259 261 264 268 273
258 260 260 259 256 252 249 247 247 246 246 246 245 246 247 247 247 247 250 251 248 245 241 239 239 238 239 239 238 238 238 239 240 241 242 243 244 243 244 246 249 251 253 255 258 260 263 267 271
259 262 262 259 256 252 249 247 247 246 246 245 244 245 247 246 247 247 248 249 247 244 241 239 238 237 238 238 238 238 237 238 239 241 243 243 244 244 245 247 249 251 253 256 258 260 263 266 271
263 265 263 258 255 253 251 248 247 245 244 244 243 243 245 246 246 247 247 247 246 244 241 239 238 236 236 236 237 238 237 237 239 241 242 243 244 246 245 248 250 251 254 257 259 261 263 267 270
267 267 265 259 255 253 252 249 247 245 243 242 243 242 242 244 244 246 247 246 244 242 241 239 237 236 235 235 236 237 238 238 239 241 242 242 245 247 247 248 251 252 254 257 259 261 264 267 270
271 269 264 260 256 253 251 249 247 245 244 242 241 240 241 243 243 246 247 246 243 241 239 239 238 236 235 235 236 237 238 238 240 241 242 243 245 246 248 249 250 252 254 257 259 261 264 266 269
277 272 265 260 257 253 250 248 246 244 243 239 239 239 240 243 243 245 247 246 243 241 239 238 238 237 236 236 237 238 239 238 239 241 243 244 246 246 247 250 252 253 255 257 259 261 264 267 269
280 272 265 259 256 250 248 247 246 243 244 243 241 241 242 243 243 245 247 246 242 240 239 238 238 237 237 236 237 238 239 239 239 241 243 244 246 247 247 250 251 252 253 255 257 261 264 267 269
281 273 264 256 253 250 247 246 243 240 243 244 242 243 244 244 243 244 246 246 242 239 238 238 239 238 238 237 237 239 240 240 241 243 245 245 245 246 245 250 250 251 253 254 257 260 263 267 269
281 276 269 259 252 247 244 241 239 239 242 244 243 243 244 244 243 244 246 246 242 239 238 238 239 239 240 239 238 239 240 240 242 244 245 246 247 248 249 250 250 251 252 254 256 260 263 266 270
283 276 271 261 252 247 243 240 239 241 244 245 245 243 244 244 243 244 246 246 244 240 239 238 238 239 240 241 240 239 240 241 242 243 244 246 247 250 251 252 253 253 253 255 257 261 264 267 271
285 280 273 263 252 248 246 242 241 244 245 246 247 246 245 245 245 245 248 246 244 241 238 238 239 239 240 241 241 240 241 242 242 243 244 246 249 251 253 253 254 255 256 258 260 261 264 267 270
289 285 280 268 256 252 250 245 242 242 244 247 248 248 247 246 247 248 249 247 245 242 238 237 239 239 240 241 242 240 241 241 242 243 245 246 249 251 254 256 255 256 258 259 261 264 265 266 270
292 286 281 269 261 253 252 250 246 245 246 249 250 250 249 248 250 249 249 247 245 244 240 239 240 240 242 243 243 241 242 241 242 243 245 246 248 251 254 257 257 256 258 260 262 264 266 267 270
291 286 278 270 266 258 255 252 250 249 249 250 249 251 253 253 252 250 248 247 245 245 242 241 241 241 242 244 245 243 242 243 244 245 246 247 249 251 253 255 257 256 257 260 262 265 266 269 270
286 284 277 272 266 260 255 255 253 254 257 255 253 253 256 255 254 252 249 247 246 245 245 243 242 242 242 245 247 246 245 244 245 246 247 248 249 251 252 255 257 258 258 261 263 265 266 269 271
285 282 276 273 271 264 262 259 259 257 257 256 256 258 258 256 254 250 249 248 247 246 245 245 244 243 243 246 248 251 249 247 247 248 249 251 251 252 254 257 258 260 262 262 264 265 266 269 271
290 281 277 276 272 268 265 261 259 258 261 261 260 261 261 258 255 250 249 248 249 248 246 247 246 245 245 246 249 251 252 250 250 250 251 252 253 254 255 257 258 262 264 265 265 266 267 269 271
290 287 280 277 275 272 270 267 264 262 267 266 265 266 265 261 257 254 251 250 250 251 250 249 249 250 248 247 249 251 254 254 252 251 251 253 254 254 255 257 258 261 263 265 267 267 267 268 270
293 290 285 282 276 273 271 270 269 267 271 268 266 268 268 263 259 257 255 253 252 253 253 251 249 251 250 250 251 253 254 255 254 252 252 253 254 256 257 258 259 260 263 265 268 267 267 268 269
295 289 284 282 279 276 274 272 269 269 269 269 268 269 269 265 259 257 255 255 253 254 254 252 252 253 253 252 252 254 254 254 254 253 253 254 256 258 260 261 261 262 264 265 268 270 270 269 270
296 293 283 280 279 281 278 275 270 269 271 270 271 271 269 268 262 259 255 255 255 255 255 253 253 253 254 254 255 255 254 256 257 255 255 255 256 258 261 263 263 263 264 266 268 269 271 271 271
298 293 285 281 282 282 284 280 275 274 274 272 270 271 269 268 265 264 262 259 256 257 256 254 254 256 257 257 258 258 257 258 258 257 256 256 257 259 261 263 264 264 265 266 268 268 270 271 271
300 296 291 286 284 284 284 286 284 277 276 276 273 271 271 269 268 268 265 263 260 259 259 258 258 259 260 260 259 260 260 259 259 258 258 257 257 259 261 264 265 266 266 266 267 268 269 271 272
Height
5806 5808 5809 5811 5812 5813 5816 5821 5824 5826 5828 5830 5832 5834 5835 5837 5839 5843 5843 5843 5845 5847 5848 5850 5852 5854 5855 5857 5858 5860 5861 5862 5863 5864 5865 5866 5867 5868 5869 5870 5870 5871 5871 5872 5872 5872 5872 5872 5871
5799 5801 5802 5804 5805 5807 5812 5816 5818 5820 5823 5825 5827 5829 5831 5832 5833 5836 5837 5839 5840 5842 5844 5846 5848 5850 5852 5853 5855 5857 5858 5859 5860 5862 5863 5864 5865 5866 5867 5867 5868 5869 5869 5870 5870 5870 5870 5870 5870
5791 5793 5795 5796 5798 5802 5807 5810 5812 5814 5816 5819 5821 5824 5826 5827 5829 5830 5832 5834 5836 5838 5840 5842 5844 5846 5848 5850 5851 5853 5855 5856 5857 5858 5860 5861 5862 5863 5864 5865 5865 5866 5867 5867 5868 5868 5868 5868 5867
5783 5785 5787 5789 5792 5798 5800 5803 5805 5807 5809 5812 5815 5817 5819 5821 5824 5825 5827 5828 5830 5833 5835 5837 5839 5841 5843 5845 5847 5849 5851 5852 5854 5855 5856 5858 5859 5860 5861 5862 5863 5863 5864 5864 5865 5865 5865 5865 5865
5774 5776 5778 5780 5786 5790 5792 5795 5797 5799 5802 5805 5808 5810 5812 5815 5817 5819 5821 5823 5825 5827 5829 5831 5834 5836 5838 5840 5842 5845 5846 5848 5850 5851 5853 5854 5855 5856 5857 5858 5859 5860 5861 5861 5862 5862 5862 5862 5862
5766 5768 5770 5773 5778 5781 5783 5787 5788 5791 5794 5797 5800 5803 5805 5808 5811 5813 5815 5816 5819 5821 5823 5825 5828 5830 5832 5835 5837 5839 5842 5844 5845 5847 5849 5850 5851 5852 5853 5855 5855 5856 5857 5858 5858 5859 5859 5859 5859
5759 5761 5763 5767 5769 5772 5775 5777 5779 5782 5786 5789 5792 5795 5798 5801 5804 5805 5807 5809 5811 5813 5816 5818 5821 5824 5826 5829 5832 5834 5836 5839 5841 5842 5844 5846 5847 5848 5849 5850 5851 5852 5853 5854 5855 5855 5855 5855 5855
5750 5753 5755 5758 5760 5763 5766 5768 5770 5773 5776 5780 5784 5787 5790 5793 5795 5797 5799 5802 5804 5806 5809 5811 5814 5817 5820 5823 5826 5828 5831 5833 5835 5837 5839 5841 5842 5844 5845 5846 5847 5848 5849 5850 5850 5851 5851 5852 5852
5742 5745 5746 5750 5751 5754 5756 5758 5760 5764 5767 5770 5774 5777 5781 5784 5786 5788 5791 5793 5796 5798 5801 5804 5807 5810 5813 5816 5819 5822 5824 5827 5829 5832 5834 5835 5837 5839 5840 5841 5843 5844 5845 5845 5846 5847 5847 5847 5848
5734 5736 5739 5741 5742 5744 5745 5748 5750 5753 5757 5760 5764 5768 5772 5775 5777 5780 5783 5785 5788 5791 5794 5797 5800 5803 5806 5809 5812 5815 5818 5820 5823 5825 5827 5829 5832 5833 5835 5836 5837 5839 5840 5841 5842 5842 5843 5843 5843
5726 5727 5729 5730 5732 5733 5735 5738 5740 5743 5747 5751 5756 5760 5763 5765 5768 5771 5774 5777 5779 5782 5786 5789 5792 5795 5799 5802 5805 5808 5811 5813 5816 5819 5821 5824 5826 5828 5829 5830 5832 5833 5835 5836 5837 5837 5838 5838 5838
5718 5719 5720 5721 5722 5724 5726 5728 5731 5734 5739 5743 5746 5750 5754 5757 5760 5763 5765 5768 5771 5774 5777 5781 5784 5787 5791 5794 5797 5801 5804 5807 5810 5812 5815 5817 5819 5822 5823 5824 5826 5828 5829 5831 5832 5832 5833 5833 5833
5711 5711 5711 5712 5713 5715 5717 5720 5722 5726 5730 5733 5737 5741 5745 5749 5752 5755 5757 5760 5763 5766 5769 5773 5776 5779 5783 5786 5790 5793 5796 5800 5803 5805 5808 5810 5813 5815 5817 5819 5820 5822 5823 5825 5826 5827 5827 5827 5827
5704 5704 5703 5704 5705 5707 5709 5712 5714 5719 5722 5725 5729 5733 5737 5741 5744 5747 5750 5752 5754 5758 5761 5765 5768 5771 5774 5778 5782 5785 5788 5792 5795 5798 5801 5803 5805 5808 5810 5812 5814 5815 5817 5818 5819 5820 5821 5821 5821
5698 5697 5697 5697 5698 5700 5702 5705 5708 5712 5714 5717 5721 5726 5730 5733 5735 5739 5742 5744 5746 5750 5753 5756 5760 5763 5766 5769 5773 5776 5780 5784 5787 5790 5793 5796 5798 5800 5803 5805 5806 5808 5809 5811 5812 5813 5814 5815 5815
5692 5691 5691 5692 5693 5694 5697 5700 5703 5705 5708 5711 5715 5719 5722 5725 5728 5731 5734 5736 5739 5742 5745 5749 5752 5755 5758 5761 5765 5768 5772 5776 5779 5782 5786 5788 5791 5793 5795 5797 5799 5801 5802 5803 5805 5806 5807 5808 5808
5686 5686 5686 5687 5688 5689 5691 5694 5698 5700 5703 5706 5709 5712 5716 5719 5721 5724 5726 5729 5731 5734 5737 5741 5744 5748 5751 5754 5757 5761 5764 5768 5771 5774 5778 5780 5783 5785 5788 5790 5792 5793 5795 5796 5797 5799 5800 5801 5801
5682 5681 5682 5683 5684 5685 5687 5690 5693 5696 5698 5701 5704 5707 5710 5713 5715 5717 5719 5722 5724 5727 5730 5733 5736 5740 5743 5746 5750 5753 5757 5760 5764 5767 5770 5773 5775 5778 5780 5782 5784 5786 5787 5789 5790 5791 5792 5793 5794
5679 5678 5679 5680 5680 5682 5683 5686 5688 5691 5694 5696 5699 5701 5704 5707 5709 5711 5713 5715 5717 5719 5722 5726 5729 5732 5736 5739 5742 5745 5749 5752 5755 5759 5762 5765 5768 5770 5772 5775 5777 5778 5780 5781 5783 5783 5784 5786 5786
5675 5675 5675 5677 5677 5678 5679 5681 5683 5686 5689 5691 5693 5695 5698 5700 5702 5704 5706 5707 5710 5712 5715 5718 5721 5725 5728 5731 5734 5737 5740 5744 5747 5751 5754 5757 5759 5762 5764 5766 5769 5770 5772 5773 5775 5776 5776 5777 5778
5673 5673 5673 5673 5673 5675 5676 5678 5680 5682 5684 5686 5688 5691 5692 5694 5696 5698 5700 5701 5704 5706 5708 5711 5714 5718 5721 5724 5726 5729 5733 5735 5739 5742 5746 5749 5751 5754 5756 5758 5760 5762 5763 5764 5766 5767 5768 5769 5769
5671 5671 5670 5670 5671 5672 5673 5674 5677 5677 5680 5682 5684 5686 5687 5688 5690 5691 5693 5695 5697 5699 5701 5704 5707 5710 5714 5717 5719 5722 5725 5728 5731 5734 5737 5740 5743 5745 5747 5749 5751 5753 5754 5756 5757 5759 5760 5760 5761
5668 5668 5668 5667 5668 5669 5670 5670 5673 5674 5675 5678 5679 5680 5681 5683 5684 5685 5687 5690 5692 5693 5695 5697 5700 5703 5706 5709 5712 5714 5717 5720 5723 5726 5728 5731 5734 5737 5739 5741 5743 5744 5746 5747 5748 5749 5751 5751 5752
5666 5666 5665 5664 5664 5666 5667 5667 5668 5669 5671 5673 5675 5675 5676 5677 5678 5679 5681 5683 5685 5687 5689 5691 5694 5696 5699 5702 5705 5707 5709 5712 5715 5718 5720 5723 5725 5728 5730 5732 5734 5735 5737 5738 5739 5740 5741 5741 5742
5663 5662 5661 5661 5660 5662 5663 5663 5665 5666 5667 5668 5670 5670 5670 5671 5672 5673 5675 5677 5679 5681 5683 5685 5687 5690 5692 5694 5697 5699 5702 5704 5706 5709 5712 5714 5716 5719 5721 5723 5725 5726 5728 5729 5730 5730 5731 5732 5733
5660 5660 5659 5658 5657 5658 5660 5659 5662 5662 5663 5663 5664 5664 5664 5665 5666 5668 5669 5671 5673 5675 5676 5678 5681 5683 5685 5687 5689 5692 5693 5695 5698 5700 5703 5705 5707 5709 5711 5714 5715 5717 5718 5719 5720 5721 5721 5722 5723
5658 5656 5656 5655 5654 5654 5655 5656 5657 5657 5658 5658 5659 5659 5659 5660 5661 5662 5664 5665 5667 5668 5670 5672 5674 5676 5678 5679 5681 5683 5685 5687 5689 5691 5694 5696 5699 5700 5702 5704 5706 5707 5709 5710 5711 5711 5712 5712 5712
5655 5653 5653 5651 5650 5649 5651 5652 5653 5652 5653 5653 5653 5653 5654 5654 5655 5656 5658 5659 5661 5662 5663 5665 5667 5668 5670 5672 5673 5675 5677 5679 5681 5683 5685 5688 5690 5691 5693 5694 5696 5697 5699 5700 5701 5702 5702 5702 5702
5652 5650 5648 5647 5646 5646 5645 5649 5648 5648 5648 5648 5648 5648 5648 5649 5649 5651 5652 5653 5654 5655 5657 5658 5660 5661 5662 5664 5665 5667 5669 5670 5672 5674 5676 5678 5680 5682 5684 5685 5686 5688 5689 5690 5691 5692 5692 5692 5692
5647 5646 5645 5644 5643 5642 5640 5645 5643 5643 5642 5643 5643 5643 5643 5643 5644 5644 5645 5646 5647 5648 5649 5651 5652 5653 5655 5656 5657 5659 5660 5661 5663 5665 5666 5668 5670 5672 5674 5675 5676 5678 5679 5680 5681 5681 5682 5682 5682